Location: Hodgeman County Ambulance
(38.0844°N, 99.8949°W)
Time: 12:03:37
(UTC+00:00)

ISS - Visible Passes

Search period start: 21 September 2021 00:00
Search period end: 01 October 2021 00:00
Orbit: 419 x 423 km, 51.6° (Epoch: 21 September)

Date Brightness Start Highest point End Pass type
(mag) Time Alt. Az. Time Alt. Az. Time Alt. Az.
21 Sep -2.3 01:03:11 10° WSW 01:06:19 37° NNW 01:09:29 10° NE visible
21 Sep -0.7 02:42:59 10° NNW 02:43:57 11° NNW 02:44:52 10° N visible
22 Sep -0.9 01:55:01 10° NW 01:56:47 13° NNW 01:58:33 10° NNE visible
23 Sep -1.2 01:07:18 10° WNW 01:09:40 17° NNW 01:12:01 10° NNE visible
25 Sep -0.9 01:12:22 10° NNW 01:13:12 11° NNW 01:14:02 10° N visible
28 Sep -1.0 02:07:15 10° N 02:07:48 10° NNE 02:07:56 10° NNE visible
29 Sep -0.4 02:55:42 10° NNW 02:55:45 10° NNW 02:55:45 10° NNW visible
30 Sep -1.4 02:09:04 10° NNW 02:10:37 16° N 02:10:37 16° N visible
